Date,TemperatureHighF,TemperatureAvgF,TemperatureLowF,DewpointHighF,DewpointAvgF,DewpointLowF,HumidityHigh,HumidityAvg,HumidityLow,PressureMaxIn,PressureMinIn,WindSpeedMaxMPH,WindSpeedAvgMPH,GustSpeedMaxMPH,PrecipitationSumIn
2013-6-1,94.3,75.2,56.7,80.0,67.5,56.4,100,80,47,30.74,30.62,3,0,11,0.00
2013-6-2,88.0,74.0,64.2,76.1,70.1,63.8,100,88,63,30.63,30.48,4,0,13,0.05
2013-6-3,77.7,64.0,50.5,67.6,58.1,45.6,100,83,51,30.64,30.55,4,0,17,0.02
2013-6-4,73.2,57.2,45.1,46.5,41.5,35.5,84,59,30,30.84,30.64,8,2,21,0.00
2013-6-5,78.8,58.5,38.7,54.8,46.7,38.3,100,69,40,30.90,30.80,3,0,9,0.00
2013-6-6,71.8,57.1,48.4,58.5,52.8,47.9,100,87,60,30.85,30.73,2,0,13,0.25
2013-6-7,55.4,53.4,51.6,55.1,53.1,51.4,99,99,99,30.73,30.46,3,0,12,0.99
2013-6-8,77.0,60.0,51.6,64.5,57.0,51.4,100,91,60,30.77,30.41,4,0,13,0.25
2013-6-9,82.2,62.6,47.3,66.3,55.7,47.0,100,81,48,30.91,30.77,6,0,15,0.00
2013-6-10,60.8,56.4,50.2,60.4,56.2,49.9,99,99,99,30.92,30.58,2,0,8,1.04
2013-6-11,75.0,62.0,56.1,71.1,61.3,55.9,100,98,80,30.59,30.33,6,1,20,0.40
2013-6-12,74.3,60.0,49.5,58.4,54.3,49.2,100,84,51,30.59,30.38,8,2,26,0.02
2013-6-13,55.2,51.2,46.0,55.0,50.9,45.8,99,99,99,30.57,30.35,4,1,15,0.96
2013-6-14,72.9,55.7,46.8,61.3,54.0,46.5,100,95,61,30.62,30.36,4,1,15,0.13
2013-6-15,78.8,62.6,47.3,55.2,51.4,46.9,100,72,40,30.71,30.62,5,1,16,0.01
2013-6-16,71.8,60.4,45.0,64.9,56.3,44.7,99,88,62,30.71,30.47,3,0,14,0.00
2013-6-17,85.1,65.8,53.2,66.8,59.3,53.0,100,83,41,30.67,30.56,5,0,13,0.14
2013-6-18,74.5,59.6,49.1,70.3,58.5,48.6,100,96,81,30.67,30.60,2,0,8,0.17
2013-6-19,77.0,59.1,44.6,52.3,47.5,42.9,100,70,38,30.89,30.66,3,0,13,0.00
2013-6-20,82.0,60.2,40.6,65.9,53.7,40.4,100,82,52,30.95,30.89,3,0,8,0.00
2013-6-21,81.5,66.0,50.4,72.7,62.6,49.9,100,90,69,30.99,30.93,2,0,9,0.00
2013-6-22,87.8,70.1,54.0,71.8,64.0,53.7,100,83,55,30.95,30.82,2,0,10,0.00
2013-6-23,95.0,77.5,63.9,79.5,70.8,63.6,100,82,51,30.87,30.76,3,0,12,0.00
2013-6-24,93.6,74.7,60.8,80.7,69.8,60.5,100,86,52,30.79,30.69,5,0,17,0.09
2013-6-25,90.0,73.4,58.8,76.5,68.1,58.6,100,85,56,30.74,30.53,4,0,16,0.01
2013-6-26,85.6,71.3,60.4,75.1,68.2,60.2,100,91,63,30.59,30.53,3,0,13,0.00
2013-6-27,87.3,70.5,57.0,77.5,67.6,56.6,100,91,68,30.58,30.30,3,0,11,0.35
2013-6-28,84.6,71.4,63.1,73.1,67.8,62.9,99,89,65,30.30,30.17,10,1,24,1.63
2013-6-29,82.0,68.1,55.9,73.1,64.7,55.3,100,90,67,30.45,30.24,2,0,10,0.01
2013-6-30,88.9,68.1,57.7,77.2,65.9,57.5,99,93,63,30.66,30.45,1,0,6,0.37